Showing default

QIANFAN-57, 62787

Orbit data source: Space-Track

QIANFAN-57, 62787 is a Chinese payload satellite in LEO that was launched on Thu, 23 Jan 2025 UTC via a CHANG ZHENG 6A launch vehicle from the Taiyaun Space Center, China (TSC). Payload-class satellites include a variety of spacecraft equipped with specific instruments for various scientific and technological missions. These include communications satellites like Starlink; space stations such as the ISS; scientific satellites like the Hubble; Earth observation satellites from companies like Planet Labs, Umbra, and HawkEye 360; GPS; miniature CubeSats for education and research; and military/defense satellites.

Loading next visibility...
Identifier
62787, 2025-016C
Orbit
LEO
Country
Flag of CNCN / PRC
Related business
Manufacturer
SECM
Mission
Operational Commercial Communications
Bus & Motor
QIANFAN, Unknown motor
Mass
267 kg wet, ~267 kg dry
Launch date (UTC)
2025-01-23 (9 months ago)
Launch vehicle
CHANG ZHENG 6A
Launch site
Taiyaun Space Center, China (TSC)
Object type
Payload
Rocket body
Debris
Shape & HBR
Box + 1 Pan, 1.2 m
Radar Cross Section
13.200 m², Large (>1 m²)

Expand to show TLE details & history
Last TLE update: 5 hours ago

TLE from 5 hours ago
0 QIANFAN-57
1 62787U 25016C   25308.16354245  .00000043  00000-0  48542-4 0  9996
2 62787  88.9754 107.1795 0000926 104.7629 255.3625 13.50977390 41994
Epoch: 2025-11-04T03:55Z
TLE epoch observation values (Epoch: 2025-11-04T03:55:30.067Z)
Latitude
-0.00001°
Longitude
4.64971°
Altitude
1,071.792 km
Speed
7.316 km/s
True Right ascension
07h 08m 43s
True Declination
0° 00' 00"
Sunlit
Object was in daylight at epoch
Visualization orbit readout
Latitude
Unknown
Longitude
Unknown
Altitude
Unknown
Speed
Unknown
Apparent Right ascension
Unknown
Apparent Declination
Unknown
Sunlit
N/A
Visualization observer readout
Local Sidereal Time
05:00:11
Azimuth
Unknown
Elevation
Unknown
Doppler factor
Unknown
Orbital elements
Apogee altitude
1,066.405 km
Perigee altitude
1,065.027 km
Semi-major axis
7,443.853 km
Eccentricity
0.00009
Inclination
88.9754°
RAAN
107.1795°
Arg. of periapsis
104.7629°
True anomaly
255.35223°
Mean anomaly
255.3625°
Eccentric anomaly
255.35737°
Mean motion
3.37945 °/min
Orbital period
106.53 mins
BSTAR
0.000048542
Loading maneuver chart data...
Computing Atmospheric mass density...
Loading historical data...
Loading historical data...
Loading historical data...
Loading historical data...
Loading historical data...
Loading historical data...
Loading historical data...

Documentation

Showing up to 5 results
|